CW8428 Weather Reports


time (UTC)temp
C
wind
direction
speed
KPH
gust
KPH
rain 1hr
cm
rain 24hr
cm
rain mn
cm
humidity
%
barometer
mb
20260508191623 21 205 11.3 24.1 0.00 0.00 0.00 28 1016.5
20260508190614 21 244 12.9 20.9 0.00 0.00 0.00 32 1016.5
20260508185631 21 220 16.1 27.4 0.00 0.00 0.00 28 1016.5
20260508184622 21 217 11.3 22.5 0.00 0.00 0.00 29 1016.6
20260508183651 21 270 4.8 20.9 0.00 0.00 0.00 32 1016.7
20260508182620 21 229 8.0 17.7 0.00 0.00 0.00 32 1016.8
20260508181629 20 236 6.4 12.9 0.00 0.00 0.00 34 1016.9
20260508180648 20 227 4.8 14.5 0.00 0.00 0.00 32 1017.0
20260508175629 20 290 6.4 14.5 0.00 0.00 0.00 34 1017.2
20260508174637 19 232 6.4 14.5 0.00 0.00 0.00 35 1017.2
20260508173623 18 263 8.0 17.7 0.00 0.00 0.00 38 1017.3
20260508172630 18 261 9.7 16.1 0.00 0.00 0.00 45 1017.3
20260508171623 17 281 3.2 8.0 0.00 0.00 0.00 48 1017.4
20260508170630 16 253 3.2 6.4 0.00 0.00 0.00 49 1017.5
20260508165631 15 277 1.6 4.8 0.00 0.00 0.00 52 1017.5
20260508164620 14 194 3.2 8.0 0.00 0.00 0.00 56 1017.6
20260508163629 13 302 1.6 8.0 0.00 0.00 0.00 58 1017.6
20260508162613 12 273 3.2 6.4 0.00 0.00 0.00 61 1017.7
20260508161622 12 238 3.2 6.4 0.00 0.00 0.00 65 1017.7
20260508160632 11 262 3.2 4.8 0.00 0.00 0.00 65 1017.9
20260508155635 11 262 3.2 6.4 0.00 0.00 0.00 67 1017.9
20260508154623 10 281 4.8 8.0 0.00 0.00 0.00 70 1018.0
20260508153652 9 269 3.2 4.8 0.00 0.00 0.00 72 1018.1
20260508152619 8 269 1.6 3.2 0.00 0.00 0.00 76 1018.1
20260508151624 7 269 1.6 4.8 0.00 0.00 0.00 81 1018.0
20260508150614 6 269 1.6 4.8 0.00 0.00 0.00 83 1018.0
20260508145613 6 269 0.0 1.6 0.00 0.00 0.00 83 1018.0
20260508144620 6 269 3.2 4.8 0.00 0.00 0.00 83 1018.2
20260508143627 6 269 1.6 4.8 0.00 0.00 0.00 81 1018.1
20260508142618 6 269 0.0 0.0 0.00 0.00 0.00 81 1018.1
20260508141628 6 269 0.0 0.0 0.00 0.00 0.00 84 1018.1
20260508140615 5 269 0.0 0.0 0.00 0.00 0.00 86 1018.1
20260508135632 5 269 0.0 0.0 0.00 0.00 0.00 87 1018.1
20260508134626 4 269 0.0 0.0 0.00 0.00 0.00 87 1018.1
20260508133634 3 269 0.0 0.0 0.00 0.00 0.00 87 1018.0
20260508132619 3 269 1.6 3.2 0.00 0.00 0.00 87 1017.9
20260508131627 3 269 0.0 4.8 0.00 0.00 0.00 86 1017.8
20260508130619 3 269 1.6 1.6 0.00 0.00 0.00 86 1017.8
20260508125616 3 269 3.2 4.8 0.00 0.00 0.00 85 1017.6
20260508124644 3 269 1.6 4.8 0.00 0.00 0.00 85 1017.4
20260508123632 3 269 3.2 6.4 0.00 0.00 0.00 85 1017.4
20260508122621 3 269 1.6 6.4 0.00 0.00 0.00 84 1017.2
20260508121628 3 263 0.0 4.8 0.00 0.00 0.00 83 1017.1
20260508120613 3 263 4.8 6.4 0.00 0.00 0.00 81 1017.1
20260508115653 4 292 0.0 6.4 0.00 0.00 0.00 80 1017.0
20260508114618 4 236 3.2 6.4 0.00 0.00 0.00 79 1016.9
20260508113647 5 355 1.6 6.4 0.00 0.00 0.00 78 1016.8
20260508112652 5 34 0.0 3.2 0.00 0.00 0.00 79 1016.8
20260508111618 5 40 0.0 4.8 0.00 0.00 0.00 80 1016.8
20260508110628 5 40 1.6 6.4 0.00 0.00 0.00 80 1016.7
20260508105627 5 160 0.0 4.8 0.00 0.00 0.00 80 1016.7
20260508104620 5 161 1.6 6.4 0.00 0.00 0.00 81 1016.8
20260508103626 5 203 0.0 4.8 0.00 0.00 0.00 82 1016.7
20260508102614 4 203 1.6 4.8 0.00 0.00 0.00 82 1016.6
20260508101625 4 202 1.6 4.8 0.00 0.00 0.00 82 1016.8
20260508100653 4 202 4.8 6.4 0.00 0.00 0.00 81 1016.6
20260508095631 4 268 0.0 1.6 0.00 0.00 0.00 81 1016.6
20260508094616 4 268 1.6 3.2 0.00 0.00 0.00 81 1016.5
20260508093623 4 267 0.0 4.8 0.00 0.00 0.00 79 1016.4
20260508092616 5 271 3.2 4.8 0.00 0.00 0.00 77 1016.4
20260508091625 5 270 1.6 4.8 0.00 0.00 0.00 77 1016.3
20260508090651 5 271 0.0 3.2 0.00 0.00 0.00 79 1016.2
20260508085625 5 271 0.0 0.0 0.00 0.00 0.00 77 1016.2
20260508084614 5 271 3.2 4.8 0.00 0.00 0.00 76 1016.3
20260508083622 6 248 3.2 4.8 0.00 0.00 0.00 74 1016.2
20260508082631 6 248 1.6 4.8 0.00 0.00 0.00 74 1016.2
20260508081635 6 247 1.6 4.8 0.00 0.00 0.00 73 1016.3
20260508080624 7 247 0.0 3.2 0.00 0.00 0.00 71 1016.2
20260508075623 7 247 0.0 1.6 0.00 0.00 0.00 71 1016.2
20260508074631 7 247 0.0 3.2 0.00 0.00 0.00 70 1016.2
20260508073621 7 247 3.2 6.4 0.00 0.00 0.00 68 1016.3
20260508072614 8 189 0.0 4.8 0.00 0.00 0.00 67 1016.2
20260508071622 8 172 1.6 6.4 0.00 0.00 0.00 65 1016.2
20260508070630 9 149 0.0 3.2 0.00 0.00 0.00 65 1016.1
20260508065651 8 149 3.2 4.8 0.00 0.00 0.00 64 1016.0
20260508064621 9 152 0.0 4.8 0.00 0.00 0.00 63 1015.9
20260508063629 9 150 1.6 4.8 0.00 0.00 0.00 62 1015.9
20260508062615 10 150 3.2 4.8 0.00 0.00 0.00 60 1015.8
20260508061625 10 144 1.6 4.8 0.00 0.00 0.00 59 1015.8
20260508060624 10 144 1.6 4.8 0.00 0.00 0.00 59 1015.8
20260508055624 10 144 3.2 4.8 0.00 0.00 0.00 58 1015.7
20260508054630 11 144 0.0 1.6 0.00 0.00 0.00 57 1015.7
20260508053615 11 144 1.6 3.2 0.00 0.00 0.00 58 1015.6
20260508052623 11 144 1.6 4.8 0.00 0.00 0.00 56 1015.4
20260508051636 11 145 1.6 3.2 0.00 0.00 0.00 55 1015.4
20260508050623 11 145 1.6 8.0 0.00 0.00 0.00 55 1015.3
20260508045620 12 136 3.2 6.4 0.00 0.00 0.00 53 1015.3
20260508044627 12 94 3.2 6.4 0.00 0.00 0.00 53 1015.2
20260508043622 12 26 0.0 3.2 0.00 0.00 0.00 52 1015.2
20260508042612 13 25 4.8 6.4 0.00 0.00 0.00 51 1015.3
20260508041622 13 105 1.6 6.4 0.00 0.00 0.00 50 1015.3
20260508040630 13 116 1.6 4.8 0.00 0.00 0.00 50 1015.1
20260508035625 13 116 3.2 4.8 0.00 0.00 0.00 50 1015.0
20260508034615 13 117 3.2 6.4 0.00 0.00 0.00 50 1015.0
20260508033643 13 163 6.4 8.0 0.00 0.00 0.00 51 1014.8
20260508032630 13 307 1.6 3.2 0.00 0.00 0.00 51 1014.7
20260508031638 14 306 1.6 6.4 0.00 0.00 0.00 50 1014.6
20260508030627 15 281 4.8 6.4 0.00 0.00 0.00 47 1014.3
20260508025645 16 290 3.2 6.4 0.00 0.00 0.00 42 1014.3
20260508024632 17 244 1.6 3.2 0.00 0.00 0.00 40 1014.3
20260508023619 18 244 3.2 4.8 0.00 0.00 0.00 39 1014.2
20260508022625 18 244 1.6 6.4 0.00 0.00 0.00 39 1014.0
20260508021613 19 229 3.2 4.8 0.00 0.00 0.00 38 1013.9
20260508020621 20 228 1.6 3.2 0.00 0.00 0.00 35 1013.9
20260508015618 20 228 0.0 4.8 0.00 0.00 0.00 35 1013.9
20260508014613 20 228 1.6 8.0 0.00 0.00 0.00 33 1013.9
20260508013623 21 226 6.4 9.7 0.00 0.00 0.00 32 1013.9
20260508012631 21 229 4.8 11.3 0.00 0.00 0.00 31 1013.9
20260508011620 21 241 4.8 11.3 0.00 0.00 0.00 32 1013.9
20260508010614 21 281 4.8 6.4 0.00 0.00 0.00 35 1013.9
20260508005614 21 257 6.4 9.7 0.00 0.00 0.00 33 1013.8
20260508004621 21 246 8.0 16.1 0.00 0.00 0.00 32 1013.8
20260508003629 22 248 4.8 6.4 0.00 0.00 0.00 28 1013.8
20260508002621 22 271 4.8 6.4 0.00 0.00 0.00 29 1013.9
20260508001613 21 191 3.2 12.9 0.00 0.00 0.00 30 1014.1
20260508000621 21 267 8.0 12.9 0.00 0.00 0.00 31 1014.3
20260507235619 21 287 3.2 12.9 0.00 0.00 0.00 28 1014.3
20260507234614 21 257 4.8 11.3 0.00 0.00 0.00 29 1014.5
20260507233624 21 261 4.8 11.3 0.00 0.00 0.00 31 1014.6
20260507232652 21 313 6.4 16.1 0.00 0.00 0.00 29 1014.6
20260507231619 20 306 4.8 11.3 0.00 0.00 0.00 32 1014.7
20260507230630 20 274 11.3 14.5 0.00 0.00 0.00 32 1014.8
20260507225631 20 247 4.8 12.9 0.00 0.00 0.00 34 1015.0
20260507224617 20 264 4.8 16.1 0.00 0.00 0.00 37 1015.2
20260507223626 20 245 9.7 16.1 0.00 0.00 0.00 35 1015.3
20260507222618 20 218 12.9 17.7 0.00 0.00 0.00 29 1015.3
20260507221626 20 223 8.0 17.7 0.00 0.00 0.00 34 1015.4
20260507220614 20 281 11.3 17.7 0.00 0.00 0.00 32 1015.4
20260507215614 20 279 11.3 20.9 0.00 0.00 0.00 33 1015.5
20260507214641 21 263 16.1 25.7 0.00 0.00 0.00 31 1015.4
20260507213631 21 263 14.5 24.1 0.00 0.00 0.00 28 1015.6
20260507212619 21 226 11.3 20.9 0.00 0.00 0.00 30 1015.8
20260507211627 21 251 12.9 30.6 0.00 0.00 0.00 27 1015.9
20260507210621 21 186 16.1 29.0 0.00 0.00 0.00 26 1016.1
20260507205623 20 214 19.3 27.4 0.00 0.00 0.00 27 1016.1
20260507204632 21 240 12.9 27.4 0.00 0.00 0.00 29 1016.1
20260507203622 21 243 12.9 25.7 0.00 0.00 0.00 28 1016.2
20260507202615 20 219 12.9 24.1 0.00 0.00 0.00 29 1016.4
20260507201623 20 229 11.3 19.3 0.00 0.00 0.00 29 1016.4
20260507200651 20 239 12.9 25.7 0.00 0.00 0.00 30 1016.5
20260507195631 19 240 9.7 24.1 0.00 0.00 0.00 29 1016.6
20260507194625 19 192 11.3 19.3 0.00 0.00 0.00 30 1016.7
20260507193636 19 202 12.9 25.7 0.00 0.00 0.00 28 1016.8
20260507192626 19 240 14.5 17.7 0.00 0.00 0.00 28 1016.9